This demonstration page uses our WeatherBlox Daily Observations layout. Learn more.

Left ArrowRight Arrow

34.74481, -87.66753

Hourly Observations for March 17, 2022

Temp ( °F °C ) Dew Point ( °F °C ) Humidity (%) Winds ( mph kmh ) Pressure ( in mb ) Visibility ( mi km ) Precip ( " mm )
12:03 am 00:03 Mostly Cloudy with Mist and Fog 52 11.1 50 10 93 93 Calm 29.94 1014 5 8 0.00 0.00
12:32 am 00:32 Mostly Cloudy with Mist and Fog 51 10.6 49 9.4 92 92 Calm 29.94 1014 1 2 0.00 0.00
12:48 am 00:48 Mostly Clear with Mist and Fog 52 11 50 10 94 94 S 3 6 29.94 1014 3 5 0.00 0.00
12:53 am 00:53 Mostly Clear with Mist and Fog 51 10.6 50 10 96 96 S 3 6 29.93 1013 4 6 0.00 0.00
12:59 am 00:59 Clear with Mist and Fog 50 10 49 9.4 96 96 Calm 29.94 1014 2 3 0.00 0.00
1:11 am 01:11 Clear with Mist and Fog 50 10 49 9.4 96 96 Calm 29.94 1014 3 5 0.00 0.00
1:17 am 01:17 Clear with Mist and Fog 51 10.6 49 9.4 92 92 Calm 29.95 1014 2 3 0.00 0.00
1:27 am 01:27 Clear with Fog 51 10.6 49 9.4 92 92 Calm 29.95 1014 1 1 0.00 0.00
1:42 am 01:42 Clear with Fog 50 10 49 9.4 96 96 Calm 29.95 1014 0 0 0.00 0.00
1:53 am 01:53 Clear with Fog 51 10.6 49 9.4 92 92 Calm 29.93 1014 1 1 0.00 0.00
2:05 am 02:05 Clear with Fog 51 10.6 50 10 96 96 Calm 29.95 1014 0 0 0.00 0.00
2:21 am 02:21 Mostly Cloudy with Fog 50 10 49 9.4 96 96 Calm 29.95 1014 0 0 0.00 0.00
2:49 am 02:49 Cloudy with Mist and Fog 48 9 48 9 100 100 Calm 29.95 1014 1 1 0.00 0.00
2:53 am 02:53 Cloudy with Mist and Fog 50 10 49 9.4 96 96 Calm 29.93 1014 2 2 0.00 0.00
2:56 am 02:56 Cloudy with Mist and Fog 50 10 49 9.4 96 96 Calm 29.95 1014 3 5 0.00 0.00
3:17 am 03:17 Partly Cloudy with Mist and Fog 50 10 49 9.4 96 96 Calm 29.94 1014 2 3 0.00 0.00
3:28 am 03:28 Mostly Cloudy with Fog 50 10 48 8.9 93 93 Calm 29.94 1014 1 1 0.00 0.00
3:39 am 03:39 Mostly Cloudy with Fog 49 9.4 48 8.9 97 97 Calm 29.94 1014 0 0 0.00 0.00
3:50 am 03:50 Mostly Cloudy with Fog 48 9 48 9 100 100 Calm 29.94 1014 0 0 0.00 0.00
3:53 am 03:53 Mostly Cloudy with Fog 49 9.4 48 8.9 97 97 Calm 29.92 1013 0 0 0.00 0.00
4:34 am 04:34 Cloudy with Fog 49 9.4 47 8.3 93 93 Calm 29.95 1014 1 1 0.00 0.00
4:49 am 04:49 Mostly Cloudy with Fog 46 8 46 8 100 100 Calm 29.95 1014 0 0 0.00 0.00
4:53 am 04:53 Mostly Cloudy with Fog 48 8.9 47 8.3 96 96 Calm 29.93 1014 0 0 0.00 0.00
5:31 am 05:31 Cloudy with Fog 48 8.9 47 8.3 96 96 Calm 29.96 1015 1 1 0.00 0.00
5:43 am 05:43 Cloudy with Fog 48 8.9 46 7.8 93 93 Calm 29.96 1015 0 0 0.00 0.00
5:53 am 05:53 Mostly Cloudy with Fog 47 8.3 45 7.2 93 93 Calm 29.95 1014 0 0 0.00 0.00
6:03 am 06:03 Partly Cloudy with Mist and Fog 46 7.8 44 6.7 93 93 Calm 29.97 1015 1 1 0.00 0.00
6:13 am 06:13 Mostly Cloudy with Fog 46 7.8 45 7.2 96 96 Calm 29.97 1015 1 1 0.00 0.00
6:25 am 06:25 Mostly Cloudy with Fog 46 7.8 45 7.2 96 96 Calm 29.97 1015 0 0 0.00 0.00
6:53 am 06:53 Mostly Cloudy with Fog 47 8.3 45 7.2 93 93 Calm 29.96 1015 0 0 0.00 0.00
6:59 am 06:59 Mostly Cloudy with Fog 46 7.8 45 7.2 96 96 Calm 29.98 1015 N/A 0.00 0.00
7:18 am 07:18 Mostly Cloudy with Fog 46 7.8 45 7.2 96 96 ESE 3 6 29.99 1016 0 0 0.00 0.00
7:53 am 07:53 Cloudy with Mist and Fog 49 9.4 48 8.9 97 97 E 3 6 29.98 1015 1 2 0.00 0.00
8:04 am 08:04 Cloudy with Fog 50 10 49 9.4 96 96 E 3 6 30.00 1016 1 1 0.00 0.00
8:13 am 08:13 Cloudy with Fog 50 10 49 9.4 96 96 E 6 9 30.00 1016 0 0 0.00 0.00
8:20 am 08:20 Mostly Cloudy with Fog 50 10 50 10 100 100 ESE 6 9 30.00 1016 N/A 0.00 0.00
8:53 am 08:53 Mostly Cloudy with Fog 52 11.1 51 10.6 97 97 E 6 9 29.98 1015 N/A 0.00 0.00
9:30 am 09:30 Mostly Cloudy with Fog 54 12.2 54 12.2 100 100 ESE 5 7 30.00 1016 0 0 0.00 0.00
9:53 am 09:53 Mostly Cloudy with Fog 55 12.8 54 12.2 96 96 ESE 5 7 29.99 1016 0 0 0.00 0.00
10:03 am 10:03 Cloudy with Mist and Fog 56 13.3 55 12.8 97 97 ESE 7 11 30.01 1016 1 1 0.00 0.00
10:11 am 10:11 Cloudy with Mist and Fog 56 13.3 55 12.8 97 97 ESE 6 9 30.01 1016 1 2 0.00 0.00
10:35 am 10:35 Cloudy with Mist and Fog 56 13.3 55 12.8 97 97 E 6 9 30.01 1016 3 4 0.00 0.00
10:48 am 10:48 Cloudy with Mist and Fog 57 14 55 13 94 94 E 6 9 30.01 1016 5 8 0.00 0.00
10:53 am 10:53 Cloudy with Mist and Fog 58 14.4 56 13.3 93 93 E 7 11 30.00 1016 6 10 0.00 0.00
11:28 am 11:28 Mostly Sunny 62 16.7 57 13.9 84 84 E 5 7 30.00 1016 10 16 0.00 0.00
11:53 am 11:53 Sunny 65 18.3 57 13.9 76 76 E 6 9 29.99 1016 10 16 0.00 0.00
12:53 pm 12:53 Mostly Sunny 68 20 57 13.9 68 68 ESE 5 7 29.98 1015 10 16 0.00 0.00
1:53 pm 13:53 Mostly Cloudy 72 22.2 54 12.2 53 53 undefined N/A 29.95 1014 10 16 0.00 0.00
2:53 pm 14:53 Sunny 74 23.3 53 11.7 48 48 SSE 9 15 29.92 1013 10 16 0.00 0.00
3:53 pm 15:53 Sunny 73 22.8 50 10 44 44 VRB 7 11 29.91 1013 10 16 0.00 0.00
4:53 pm 16:53 Sunny 73 22.8 51 10.6 46 46 SSE 7 11 29.89 1012 10 16 0.00 0.00
5:53 pm 17:53 Sunny 73 22.8 53 11.7 50 50 S 5 7 29.90 1013 10 16 0.00 0.00
6:53 pm 18:53 Sunny 70 21.1 52 11.1 53 53 SSE 3 6 29.91 1013 10 16 0.00 0.00
7:53 pm 19:53 Clear 66 18.9 52 11.1 61 61 S 5 7 29.92 1013 10 16 0.00 0.00
8:53 pm 20:53 Clear 62 16.7 52 11.1 70 70 SE 6 9 29.93 1013 10 16 0.00 0.00
9:53 pm 21:53 Clear 61 16.1 51 10.6 70 70 SE 5 7 29.92 1013 10 16 0.00 0.00
10:53 pm 22:53 Clear 58 14.4 51 10.6 78 78 SE 6 9 29.90 1013 10 16 0.00 0.00
11:53 pm 23:53 Clear 57 13.9 50 10 78 78 SSE 6 9 29.88 1012 10 16 0.00 0.00

Powered by AerisWeather